This demonstration page uses our WeatherBlox Daily Observations layout. Learn more.

Left ArrowRight Arrow

39.01783, -85.05884

Hourly Observations for October 26, 2015

Temp ( °F °C ) Dew Point ( °F °C ) Humidity (%) Winds ( mph kmh ) Pressure ( in mb ) Visibility ( mi km ) Precip ( " mm )
12:52 am 00:52 Cloudy 51 10.6 38 3.3 61 61 NE 10 17 30.31 1026 10 16 N/A
1:52 am 01:52 Cloudy 50 10 37 2.8 61 61 ENE 9 15 30.32 1027 10 16 N/A
2:52 am 02:52 Cloudy 50 10 36 2.2 59 59 ENE 10 17 30.32 1027 10 16 N/A
3:52 am 03:52 Cloudy 49 9.4 35 1.7 59 59 E 12 19 30.32 1027 10 16 N/A
4:52 am 04:52 Cloudy 48 8.9 35 1.7 61 61 ENE 14 22 30.32 1027 10 16 N/A
5:52 am 05:52 Mostly Cloudy 47 8.3 36 2.2 66 66 ENE 9 15 30.34 1028 10 16 N/A
6:52 am 06:52 Mostly Cloudy 46 7.8 36 2.2 68 68 E 10 17 30.34 1027 10 16 N/A
7:52 am 07:52 Cloudy 46 7.8 36 2.2 68 68 ENE 8 13 30.35 1028 10 16 N/A
8:52 am 08:52 Mostly Cloudy 46 7.8 37 2.8 71 71 E 10 17 30.34 1028 10 16 N/A
9:52 am 09:52 Mostly Cloudy 50 10 38 3.3 63 63 E 10 17 30.35 1028 10 16 N/A
10:52 am 10:52 Mostly Cloudy 53 11.7 37 2.8 55 55 ENE 13 20 30.36 1028 10 16 N/A
11:52 am 11:52 Mostly Cloudy 55 12.8 36 2.2 49 49 ENE 10 17 30.34 1028 10 16 N/A
12:52 pm 12:52 Mostly Cloudy 59 15 35 1.7 41 41 ENE 14 22 30.32 1027 10 16 N/A
1:52 pm 13:52 Partly Cloudy 61 16.1 34 1.1 36 36 ENE 15 24 30.29 1026 10 16 N/A
2:52 pm 14:52 Mostly Cloudy 63 17.2 33 0.6 33 33 ENE 12 19 30.27 1025 10 16 N/A
3:52 pm 15:52 Mostly Cloudy 64 17.8 33 0.6 32 32 ENE 13 20 30.25 1025 10 16 N/A
4:52 pm 16:52 Mostly Cloudy 64 17.8 34 1.1 33 33 ENE 14 22 30.25 1024 10 16 N/A
5:52 pm 17:52 Mostly Cloudy 63 17.2 33 0.6 33 33 ENE 12 19 30.26 1025 10 16 N/A
6:52 pm 18:52 Mostly Cloudy 60 15.6 34 1.1 38 38 ENE 9 15 30.27 1025 10 16 N/A
7:52 pm 19:52 Cloudy 61 16.1 34 1.1 36 36 ENE 8 13 30.27 1025 10 16 N/A
8:52 pm 20:52 Cloudy 60 15.6 33 0.6 36 36 E 12 19 30.28 1025 10 16 N/A
9:52 pm 21:52 Cloudy 59 15 33 0.6 38 38 ENE 12 19 30.27 1025 10 16 N/A
10:52 pm 22:52 Cloudy 59 15 35 1.7 41 41 E 12 19 30.27 1025 10 16 N/A
11:52 pm 23:52 Cloudy 58 14.4 36 2.2 44 44 E 12 19 30.27 1025 10 16 N/A

Powered by AerisWeather